This demonstration page uses our WeatherBlox Daily Observations layout. Learn more.

Left ArrowRight Arrow

30.21309, -93.2044

Hourly Observations for February 27, 2022

Temp ( °F °C ) Dew Point ( °F °C ) Humidity (%) Winds ( mph kmh ) Pressure ( in mb ) Visibility ( mi km ) Precip ( " mm )
12:15 am 00:15 Cloudy 43 5.9 40 4.6 91 91 N 10 17 30.27 1025 10 16 0.00 0.00
12:35 am 00:35 Cloudy with Mist and Fog 42 5.5 40 4.5 93 93 N 10 17 30.28 1025 5 8 0.00 0.00
12:55 am 00:55 Cloudy with Mist and Fog 42 5.3 40 4.3 93 93 N 10 17 30.28 1025 7 11 0.00 0.00
1:15 am 01:15 Cloudy with Mist and Fog 41 5.2 39 4.1 93 93 N 9 15 30.27 1025 5 8 0.00 0.00
1:35 am 01:35 Cloudy with Mist and Fog 41 5 39 4 93 93 NNE 8 13 30.27 1025 4 6 0.00 0.00
1:55 am 01:55 Cloudy with Mist and Fog 41 5.1 40 4.2 94 94 N 8 13 30.27 1025 3 4 0.00 0.00
2:15 am 02:15 Cloudy with Mist and Fog 41 5.1 40 4.2 94 94 N 10 17 30.27 1025 3 4 0.00 0.00
2:35 am 02:35 Cloudy with Mist and Fog 41 5.1 40 4.2 94 94 N 10 17 30.27 1025 3 4 0.00 0.00
2:55 am 02:55 Cloudy with Mist and Fog 41 5 39 4.1 94 94 N 8 13 30.26 1025 4 6 0.00 0.00
3:15 am 03:15 Cloudy with Mist and Fog 41 4.9 39 3.9 93 93 N 10 17 30.26 1025 5 8 0.00 0.00
3:35 am 03:35 Cloudy 41 4.8 39 3.7 93 93 N 12 19 30.27 1025 10 16 0.00 0.00
3:55 am 03:55 Cloudy 41 4.8 38 3.6 92 92 N 10 17 30.27 1025 10 16 0.00 0.00
4:15 am 04:15 Cloudy 40 4.7 38 3.6 93 93 N 10 17 30.27 1025 10 16 0.00 0.00
4:35 am 04:35 Cloudy 40 4.7 38 3.3 91 91 N 12 19 30.28 1025 10 16 0.00 0.00
4:55 am 04:55 Cloudy with Drizzle 40 4.6 38 3.3 91 91 N 12 19 30.27 1025 7 11 0.00 0.00
5:15 am 05:15 Cloudy 40 4.6 38 3.4 92 92 N 8 13 30.28 1025 10 16 0.00 0.00
5:35 am 05:35 Cloudy 40 4.4 38 3.1 91 91 N 10 17 30.28 1025 10 16 0.00 0.00
6:00 am 06:00 Cloudy 39 4 37 3 93 93 NNE 8 13 30.28 1025 10 16 0.00 0.00
6:51 am 06:51 Cloudy 39 4 37 3 93 93 N 8 13 30.29 1026 10 16 0.00 0.00
7:46 am 07:46 Cloudy 41 5 37 3 87 87 N 10 17 30.31 1026 10 16 0.00 0.00
8:55 am 08:55 Cloudy 43 6 37 3 81 81 N 12 19 30.35 1028 10 16 0.00 0.00
9:55 am 09:55 Mostly Cloudy 45 7 37 3 76 76 N 14 22 30.34 1027 10 16 0.00 0.00
10:55 am 10:55 Mostly Cloudy 46 8 37 3 71 71 N 17 28 30.35 1028 10 16 0.00 0.00
11:55 am 11:55 Mostly Cloudy 48 9 39 4 71 71 N 10 17 30.33 1027 10 16 0.00 0.00
12:55 pm 12:55 Mostly Cloudy 54 12 39 4 58 58 N 15 24 30.29 1026 10 16 0.00 0.00
1:50 pm 13:50 Mostly Sunny 54 12 41 5 63 63 NNW 16 26 30.27 1025 10 16 0.00 0.00
2:45 pm 14:45 Partly Cloudy 55 13 43 6 63 63 N 14 22 30.25 1024 10 16 0.00 0.00
3:45 pm 15:45 Partly Cloudy 57 14 43 6 59 59 N 17 28 30.24 1024 10 16 0.00 0.00
4:55 pm 16:55 Mostly Sunny 55 13 41 5 59 59 N 14 22 30.24 1024 10 16 0.00 0.00
5:50 pm 17:50 Partly Cloudy 54 12 41 5 63 63 N 12 19 30.26 1025 10 16 0.00 0.00
6:50 pm 18:50 Mostly Clear 48 9 39 4 71 71 NNW 14 22 30.28 1025 10 16 0.00 0.00
7:50 pm 19:50 Mostly Clear 46 8 39 4 76 76 NNW 12 19 30.30 1026 10 16 0.00 0.00
8:50 pm 20:50 Mostly Clear 45 7 39 4 81 81 NNW 12 19 30.33 1027 10 16 0.00 0.00
9:45 pm 21:45 Mostly Clear 43 6 37 3 81 81 NNW 12 19 30.34 1027 10 16 0.00 0.00
10:15 pm 22:15 Clear 43 6.1 38 3.3 82 82 NW 7 11 30.35 1028 10 16 0.00 0.00
10:35 pm 22:35 Clear 42 5.8 37 2.9 82 82 NNW 6 9 30.34 1027 10 16 0.00 0.00
10:55 pm 22:55 Clear 42 5.4 37 2.7 83 83 NW 5 7 30.34 1027 10 16 0.00 0.00
11:15 pm 23:15 Clear 41 5.2 37 2.6 84 84 NNW 5 7 30.34 1027 10 16 0.00 0.00
11:35 pm 23:35 Clear 41 5.2 37 2.8 85 85 NE 7 11 30.34 1027 10 16 0.00 0.00
11:55 pm 23:55 Clear 41 5.1 37 3 86 86 NNE 5 7 30.34 1027 10 16 0.00 0.00

Powered by AerisWeather